"2009-03-12 00:00:00",703059,4.299,22.29,7.175,0.908,3.821,100.9159,1.636,2.955,35.4,0,109.8,13.5,2.39,344.3
"2009-03-12 00:00:30",703060,4.237,31.52,11.32,1.304,3.01,100.9159,1.636,2.954,35.39,0,109.7,13.5,2.39,353.5
"2009-03-12 00:01:00",703061,3.055,23.33,8.04,1.409,1.653,100.9204,1.648,2.868,35.21,0,109.8,13.5,2.41,345.3
"2009-03-12 00:01:30",703062,1.796,4.306,10.01,0.87,-0.149,100.9286,1.669,2.816,35.09,0,109.8,13.54,2.43,326.3
"2009-03-12 00:02:00",703063,3.736,19.06,8.72,1.059,0.805,100.9331,1.68,2.769,35.03,0,109.8,13.5,2.44,341.1
"2009-03-12 00:02:30",703064,4.524,22.49,6.28,1.354,3.184,100.9359,1.687,2.899,35.1,0,109.8,13.51,2.45,344.5
"2009-03-12 00:03:00",703065,4.78,26.11,7.767,1.551,2.987,100.9408,1.7,3.026,35.18,0,109.8,13.51,2.46,348.1
"2009-03-12 00:03:30",703066,5.476,27.06,4.741,0.938,4.027,100.9478,1.718,3.042,35.15,0,109.8,13.51,2.48,349.1
"2009-03-12 00:04:00",703067,4.91,24.32,5.37,1.19,3.534,100.9495,1.722,2.97,35.05,0,109.8,13.51,2.48,346.3
"2009-03-12 00:04:30",703068,3.675,21.98,7.639,1.211,1.281,100.9498,1.723,2.908,34.93,0,109.8,13.5,2.48,344.0
"2009-03-12 00:05:00",703069,4.01,14.3,8.93,1.317,1.601,100.9498,1.723,2.926,34.96,0,109.8,13.5,2.48,336.3
"2009-03-12 00:05:30",703070,2.647,8.5,6.838,0.413,-0.415,100.9498,1.723,2.799,34.8,0,109.8,13.54,2.48,330.5
"2009-03-12 00:06:00",703071,3.601,5.389,6.048,1.447,2.83,100.9498,1.723,3.037,34.99,0,109.8,13.51,2.48,327.4
"2009-03-12 00:06:30",703072,3.899,10.05,6.233,0.897,3.902,100.9498,1.723,3.005,34.92,0,109.8,13.51,2.48,332.0
"2009-03-12 00:07:00",703073,3.162,356.2,7.603,1.04,1.814,100.9498,1.723,3,34.8,0,109.8,13.51,2.48,318.2
"2009-03-12 00:07:30",703074,3.932,0.472,11.45,1.153,2.906,100.9498,1.723,3.045,34.82,0,109.8,13.5,2.48,322.5
"2009-03-12 00:08:00",703075,2.938,1.093,12.18,0.961,1.605,100.9487,1.72,2.866,34.66,0,109.8,13.5,2.48,323.1
"2009-03-12 00:08:30",703076,1.818,354.7,5.795,0.388,-0.39,100.9427,1.705,2.827,34.61,0,109.8,13.54,2.46,316.7
"2009-03-12 00:09:00",703077,2.418,4.366,10.33,1.103,1.745,100.9391,1.695,2.86,34.64,0,109.8,13.51,2.45,326.4
"2009-03-12 00:09:30",703078,3.811,3.273,7.336,1.206,3.146,100.9317,1.677,3.014,34.8,0,109.8,13.51,2.43,325.3
"2009-03-12 00:10:00",703079,4.357,0.302,8.28,1.018,2.987,100.9218,1.651,2.982,34.69,0,109.8,13.51,2.41,322.3
"2009-03-12 00:10:30",703080,3.762,358.4,6.931,1.278,2.902,100.9164,1.638,3.037,34.73,0,109.8,13.51,2.40,320.4
"2009-03-12 00:11:00",703081,4.436,355.5,6.666,1.211,3.139,100.9167,1.638,2.953,34.73,0,109.8,13.51,2.40,317.5
"2009-03-12 00:11:30",703082,3.437,351.5,6.518,1.484,0.794,100.9165,1.638,2.741,34.58,0,109.8,13.5,2.40,313.5
"2009-03-12 00:12:00",703083,3.203,344.7,3.807,1.012,0.584,100.9128,1.628,2.861,34.79,0,109.7,13.5,2.39,306.7
"2009-03-12 00:12:30",703084,3.213,347.7,5.237,1.058,0.601,100.9037,1.605,2.823,34.78,0,109.8,13.5,2.36,309.7
"2009-03-12 00:13:00",703085,4.2,353.9,4.901,0.921,3.684,100.8958,1.585,2.999,35.05,0,109.7,13.5,2.34,315.9
"2009-03-12 00:13:30",703086,4.27,353.2,6.648,0.957,3.555,100.8842,1.555,2.977,35.12,0,109.7,13.5,2.31,315.2
"2009-03-12 00:14:00",703087,3.484,0.43,8.79,1.477,2.418,100.8831,1.553,2.943,35.09,0,109.7,13.5,2.31,322.4
"2009-03-12 00:14:30",703088,1.429,2.967,8.4,0.262,0.005,100.8825,1.551,2.746,34.88,0,109.7,13.54,2.31,325.0
"2009-03-12 00:15:00",703089,2.619,2.6,17.06,0.747,1.517,100.8805,1.546,2.832,35,0,109.7,13.5,2.30,324.6
"2009-03-12 00:15:30",703090,1.942,1.033,10.95,1.129,0.825,100.863,1.501,2.801,35.03,0,109.7,13.5,2.26,323.0
"2009-03-12 00:16:00",703091,2.45,359.2,12.74,1.09,0.173,100.854,1.478,2.649,34.87,0,109.7,13.5,2.24,321.2
"2009-03-12 00:16:30",703092,3.239,4.302,9.39,1.652,2.509,100.8503,1.469,2.737,35,0,109.7,13.5,2.23,326.3
"2009-03-12 00:17:00",703093,3.949,5.297,5.975,1.108,4.127,100.8495,1.467,2.905,35.2,0,109.7,13.51,2.22,327.3
"2009-03-12 00:17:30",703094,2.542,11.27,12.69,1.23,3.152,100.8517,1.473,2.835,35.11,0,109.7,13.51,2.23,333.3
"2009-03-12 00:18:00",703095,1.64,7.671,9.78,1.265,1.254,100.8497,1.467,2.719,35.02,0,109.7,13.51,2.22,329.7
"2009-03-12 00:18:30",703096,2.332,2.744,10.28,1.236,0.433,100.8385,1.439,2.684,35.01,0,109.7,13.51,2.20,324.7
"2009-03-12 00:19:00",703097,2.049,4.889,9.37,1.661,1.136,100.8223,1.398,2.622,34.96,0,109.7,13.51,2.15,326.9
"2009-03-12 00:19:30",703098,0.528,358.9,12.03,0.231,-0.597,100.817,1.384,2.547,35.05,0,109.7,13.55,2.14,320.9
"2009-03-12 00:20:00",703099,0.897,358.9,11.39,0.537,-0.549,100.8184,1.387,2.539,35.3,0,109.7,13.55,2.14,320.9
"2009-03-12 00:20:30",703100,3.085,1.835,8.48,1.265,3.282,100.8201,1.392,2.851,35.64,0,109.7,13.51,2.15,323.8
"2009-03-12 00:21:00",703101,3.768,2.282,13.86,0.974,4.417,100.8164,1.382,2.795,35.53,0,109.7,13.51,2.14,324.3
"2009-03-12 00:21:30",703102,3.705,359.1,5.526,1.39,3.635,100.8184,1.387,2.795,35.52,0,109.7,13.51,2.14,321.1
"2009-03-12 00:22:00",703103,1.634,4.377,10.93,1.061,1.027,100.819,1.389,2.621,35.28,0,109.7,13.51,2.15,326.4
"2009-03-12 00:22:30",703104,2.446,9.7,7.997,1.291,0.915,100.8201,1.392,2.53,35.22,0,109.7,13.51,2.15,331.7
"2009-03-12 00:23:00",703105,1.664,1.578,10.56,0.593,-0.855,100.8178,1.386,2.482,35.28,0,109.7,13.55,2.14,323.6
"2009-03-12 00:23:30",703106,1.649,10.62,13.03,1.181,0.917,100.8108,1.368,2.515,35.37,0,109.7,13.51,2.12,332.6
"2009-03-12 00:24:00",703107,2.619,20.58,9.74,1.317,1.683,100.8071,1.359,2.622,35.51,0,109.7,13.51,2.12,342.6
"2009-03-12 00:24:30",703108,3.226,21.94,9.06,1.27,3.233,100.8031,1.349,2.726,35.65,0,109.7,13.51,2.11,343.9
"2009-03-12 00:25:00",703109,3.181,18.43,10.28,0.802,4.858,100.8029,1.348,2.806,35.76,0,109.7,13.52,2.10,340.4
"2009-03-12 00:25:30",703110,2.951,16.59,13,1.284,2.723,100.804,1.351,2.612,35.59,0,109.7,13.51,2.11,338.6
"2009-03-12 00:26:00",703111,1.211,8.87,8.08,0.664,-0.632,100.8046,1.352,2.443,35.42,0,109.7,13.51,2.11,330.9
"2009-03-12 00:26:30",703112,1.473,12.35,5.191,0.758,-0.92,100.8029,1.348,2.455,35.41,0,109.7,13.51,2.10,334.4
"2009-03-12 00:27:00",703113,2.073,13.59,10.07,1.264,1.435,100.8026,1.347,2.572,35.54,0,109.7,13.52,2.10,335.6
"2009-03-12 00:27:30",703114,1.262,1.753,6.423,0.191,-0.291,100.8057,1.355,2.499,35.48,0,109.7,13.55,2.11,323.8
"2009-03-12 00:28:00",703115,2.57,9.29,10,1.137,1.627,100.8026,1.347,2.506,35.45,0,109.7,13.51,2.10,331.3
"2009-03-12 00:28:30",703116,3.816,10.52,8.43,0.965,4.361,100.8041,1.351,2.748,35.68,0,109.7,13.51,2.11,332.5
"2009-03-12 00:29:00",703117,3.113,5.025,9.57,1.226,3.756,100.8009,1.343,2.697,35.58,0,109.7,13.51,2.10,327.0
"2009-03-12 00:29:30",703118,1.563,2.183,8.36,0.911,0.664,100.7973,1.334,2.461,35.35,0,109.7,13.51,2.09,324.2
"2009-03-12 00:30:00",703119,2.151,5.402,9.21,1.345,1.457,100.797,1.333,2.587,35.51,0,109.7,13.51,2.09,327.4
"2009-03-12 00:30:30",703120,1.688,3.844,9.9,1.17,0.837,100.7979,1.335,2.595,35.54,0,109.7,13.51,2.09,325.8
"2009-03-12 00:31:00",703121,0.777,0.885,10.13,0.325,-0.505,100.7993,1.339,2.419,35.43,0,109.7,13.55,2.10,322.9
"2009-03-12 00:31:30",703122,0.651,7.86,11.04,0.238,-0.314,100.797,1.333,2.427,35.45,0,109.7,13.55,2.09,329.9
"2009-03-12 00:32:00",703123,2.292,16.73,10.21,1.348,3.401,100.7984,1.337,2.689,35.75,0,109.7,13.51,2.09,338.7
"2009-03-12 00:32:30",703124,2.768,19.59,10.88,1.344,3.686,100.7984,1.337,2.642,35.72,0,109.6,13.51,2.09,341.6
"2009-03-12 00:33:00",703125,2.56,21.6,6.359,1.195,2.524,100.7998,1.34,2.636,35.78,0,109.7,13.52,2.10,343.6
"2009-03-12 00:33:30",703126,2.148,16.32,8.77,1.084,0.784,100.7998,1.34,2.592,35.76,0,109.7,13.52,2.10,338.3
"2009-03-12 00:34:00",703127,2.305,7.752,10.13,1.155,1.045,100.7981,1.336,2.448,35.6,0,109.7,13.52,2.09,329.8
"2009-03-12 00:34:30",703128,1.127,0.519,10.6,0.448,-0.532,100.8007,1.342,2.403,35.51,0,109.7,13.55,2.10,322.5
"2009-03-12 00:35:00",703129,1.586,2.658,7.726,0.778,0.132,100.7973,1.334,2.486,35.58,0,109.7,13.52,2.09,324.7
"2009-03-12 00:35:30",703130,3.149,11.04,7.919,1.216,3.495,100.79,1.315,2.645,35.72,0,109.7,13.52,2.07,333.0
"2009-03-12 00:36:00",703131,3.98,4.767,7.947,1.084,4.035,100.784,1.3,2.594,35.71,0,109.7,13.52,2.06,326.8
"2009-03-12 00:36:30",703132,3.444,2.866,8.15,1.232,3.213,100.7818,1.294,2.648,35.75,0,109.7,13.52,2.05,324.9
"2009-03-12 00:37:00",703133,3.672,5.097,8.58,1.169,3.203,100.7716,1.268,2.628,35.76,0,109.7,13.52,2.02,327.1
"2009-03-12 00:37:30",703134,2.065,355.2,4.375,0.44,-0.233,100.7699,1.264,2.384,35.53,0,109.7,13.52,2.02,317.2
"2009-03-12 00:38:00",703135,2.129,1.622,10.14,0.758,0.927,100.7696,1.263,2.489,35.63,0,109.7,13.52,2.02,323.6
"2009-03-12 00:38:30",703136,2.312,8.61,9.58,1.309,1.982,100.7578,1.233,2.467,35.67,0,109.7,13.52,1.99,330.6
"2009-03-12 00:39:00",703137,2.9,13,9.66,1.095,3.376,100.7436,1.197,2.494,35.73,0,109.7,13.52,1.95,335.0
"2009-03-12 00:39:30",703138,1.292,12.24,6.083,0.853,0.143,100.7417,1.192,2.319,35.59,0,109.7,13.52,1.95,334.2
"2009-03-12 00:40:00",703139,2.173,15.92,7.907,1.33,2.274,100.7411,1.19,2.528,35.86,0,109.7,13.52,1.95,337.9
"2009-03-12 00:40:30",703140,2.719,22.98,6.372,1.107,3.028,100.7428,1.195,2.49,35.85,0,109.7,13.52,1.95,345.0
"2009-03-12 00:41:00",703141,1.639,18.64,3.817,0.751,-0.438,100.7375,1.181,2.278,35.71,0,109.7,13.52,1.94,340.6
"2009-03-12 00:41:30",703142,2.134,20.34,7.246,1.036,1.304,100.7273,1.155,2.377,35.86,0,109.7,13.53,1.91,342.3
"2009-03-12 00:42:00",703143,1.583,16.57,9.42,1.233,1.143,100.7191,1.134,2.373,35.92,0,109.7,13.53,1.89,338.6
"2009-03-12 00:42:30",703144,1.792,19.86,7.085,1.244,1.255,100.7143,1.122,2.387,36,0,109.7,13.53,1.88,341.9
"2009-03-12 00:43:00",703145,2.304,24.27,7.65,1.292,2.393,100.712,1.116,2.389,36.01,0,109.7,13.53,1.87,346.3
"2009-03-12 00:43:30",703146,1.559,12.72,11.09,1.141,1.947,100.7126,1.118,2.358,36.02,0,109.7,13.53,1.87,334.7
"2009-03-12 00:44:00",703147,2.1,19.24,7.929,1.243,1.401,100.7126,1.118,2.247,35.91,0,109.7,13.53,1.87,341.2
"2009-03-12 00:44:30",703148,0.883,12.93,5.716,0.489,0.012,100.7126,1.118,2.335,36.05,0,109.7,13.56,1.87,334.9
"2009-03-12 00:45:00",703149,1.961,9.1,11.73,1.383,2.25,100.7081,1.106,2.355,36.1,0,109.7,13.52,1.86,331.1
"2009-03-12 00:45:30",703150,1.18,5.862,12.51,1.233,1.118,100.7004,1.087,2.246,36.03,0,109.7,13.52,1.84,327.9
"2009-03-12 00:46:00",703151,2.396,8.79,14.1,1.209,2.973,100.6928,1.067,2.245,36.01,0,109.7,13.52,1.82,330.8
"2009-03-12 00:46:30",703152,1.531,3.071,12.18,1.292,1.334,100.6789,1.032,2.303,36.03,0,109.7,13.52,1.79,325.1
"2009-03-12 00:47:00",703153,2.487,4.256,8.54,1.383,2.882,100.6787,1.031,2.332,36.05,0,109.7,13.52,1.79,326.3
"2009-03-12 00:47:30",703154,0.722,6.122,10.24,0.205,0.235,100.6787,1.031,2.228,36,0,109.7,13.56,1.79,328.1
"2009-03-12 00:48:00",703155,0.799,6.409,5.386,0.1,-0.369,100.6733,1.017,2.121,35.94,0,109.7,13.56,1.77,328.4
"2009-03-12 00:48:30",703156,2.552,6.021,7.741,1.317,3.007,100.6617,0.988,2.368,36.26,0,109.7,13.53,1.74,328.0
"2009-03-12 00:49:00",703157,2.968,10.19,6.567,1.137,3.122,100.6524,0.964,2.331,36.31,0,109.7,13.53,1.72,332.2
"2009-03-12 00:49:30",703158,2.375,9.34,6.45,1.224,1.094,100.6453,0.946,2.134,36.13,0,109.7,13.54,1.70,331.3
"2009-03-12 00:50:00",703159,3.416,14.95,6.041,1.108,3.276,100.645,0.945,2.273,36.27,0,109.7,13.54,1.70,337.0
"2009-03-12 00:50:30",703160,2.497,5.843,6.855,1.238,2.516,100.6362,0.923,2.245,36.24,0,109.7,13.54,1.68,327.8
"2009-03-12 00:51:00",703161,1.101,0.263,3.387,0.14,0.006,100.621,0.884,2.033,36.04,0,109.7,13.57,1.64,322.3
"2009-03-12 00:51:30",703162,1.43,8.44,5.919,0.847,0.022,100.6168,0.873,2.015,36.06,0,109.7,13.54,1.63,330.4
"2009-03-12 00:52:00",703163,2.278,22.16,8.69,1.245,1.845,100.6165,0.872,2.15,36.26,0,109.7,13.54,1.63,344.2
"2009-03-12 00:52:30",703164,2.716,26.63,6.651,1.171,3.409,100.6072,0.849,2.222,36.39,0,109.7,13.54,1.60,348.6
"2009-03-12 00:53:00",703165,2.493,23.96,6.48,1.217,2.73,100.5913,0.808,2.178,36.42,0,109.7,13.54,1.56,346.0
"2009-03-12 00:53:30",703166,2.633,24.13,6.643,1.163,3.38,100.5902,0.805,2.119,36.43,0,109.7,13.54,1.56,346.1
"2009-03-12 00:54:00",703167,1.362,18.36,6.265,1.061,1.888,100.5919,0.81,2.126,36.45,0,109.7,13.54,1.56,340.4
"2009-03-12 00:54:30",703168,0.383,9.33,9.86,0.177,-0.196,100.586,0.795,1.905,36.3,0,109.7,13.58,1.55,331.3
"2009-03-12 00:55:00",703169,0.615,2.598,10.65,0.565,-0.381,100.5758,0.769,1.882,36.39,0,109.7,13.55,1.52,324.6
"2009-03-12 00:55:30",703170,1.483,5.399,10.05,0.992,1.325,100.564,0.738,2.023,36.68,0,109.7,13.55,1.49,327.4
"2009-03-12 00:56:00",703171,1.601,9.05,13.45,1.193,1.982,100.5628,0.736,1.943,36.77,0,109.7,13.55,1.49,331.0
"2009-03-12 00:56:30",703172,1.445,1.093,8.47,1.113,1.682,100.549,0.7,1.997,36.94,0,109.7,13.55,1.45,323.1
"2009-03-12 00:57:00",703173,2.219,9.16,9.47,1.192,2.951,100.5323,0.658,1.965,37.02,0,109.7,13.55,1.41,331.2
"2009-03-12 00:57:30",703174,2.357,13.31,7.43,1.069,3.778,100.5312,0.655,1.958,37.09,0,109.7,13.55,1.41,335.3
"2009-03-12 00:58:00",703175,0.705,4.747,7.997,0.816,0.136,100.5148,0.613,1.761,37.02,0,109.7,13.55,1.37,326.7
"2009-03-12 00:58:30",703176,0.388,5.263,11.96,0.136,-0.493,100.5026,0.582,1.737,37.07,0,109.6,13.58,1.34,327.3
"2009-03-12 00:59:00",703177,1.402,8.65,11.87,1.319,1.528,100.4908,0.552,1.811,37.24,0,109.6,13.55,1.31,330.6
"2009-03-12 00:59:30",703178,1.398,9.53,16.65,1.17,1.662,100.4749,0.511,1.811,37.33,0,109.6,13.55,1.27,331.5
"2009-03-12 01:00:00",703179,0.402,5.197,14.01,0.176,-0.316,100.4698,0.498,1.647,37.23,0,109.6,13.59,1.25,327.2
"2009-03-12 01:00:30",703180,1.389,10.45,10.67,1.222,1.302,100.4498,0.447,1.767,37.4,0,109.6,13.55,1.20,332.5
"2009-03-12 01:01:00",703181,2.572,22.1,9.14,1.222,3.31,100.441,0.425,1.818,37.51,0,109.6,13.55,1.18,344.1
"2009-03-12 01:01:30",703182,2.377,23.65,7.884,1.211,2.38,100.426,0.387,1.703,37.46,0,109.6,13.55,1.14,345.6
"2009-03-12 01:02:00",703183,2.429,20.49,7.984,1.261,2.153,100.4073,0.339,1.682,37.5,0,109.6,13.55,1.09,342.5
"2009-03-12 01:02:30",703184,2.056,21.39,3.921,1.117,0.965,100.4031,0.328,1.54,37.46,0,109.6,13.55,1.08,343.4
"2009-03-12 01:03:00",703185,2.203,27.89,6.501,1.185,1.418,100.3796,0.268,1.55,37.63,0,109.6,13.55,1.02,349.9
"2009-03-12 01:03:30",703186,1.148,20.2,2.433,0.112,-0.124,100.3731,0.252,1.457,37.78,0,109.6,13.59,1.00,342.2
"2009-03-12 01:04:00",703187,2.429,26.68,7.479,1.273,3.167,100.3519,0.198,1.66,38.08,0,109.6,13.55,0.95,348.7
"2009-03-12 01:04:30",703188,3.281,26.02,5.494,0.926,3.49,100.3394,0.166,1.557,38.08,0,109.6,13.55,0.92,348.0
"2009-03-12 01:05:00",703189,2.5,21.46,7.297,1.214,2.229,100.3307,0.144,1.441,38.13,0,109.6,13.56,0.90,343.5
"2009-03-12 01:05:30",703190,2.413,20.29,8.11,1.157,2.275,100.3134,0.1,1.54,38.4,0,109.6,13.57,0.85,342.3
"2009-03-12 01:06:00",703191,1.807,19.68,6.566,1.126,0.734,100.3041,0.076,1.357,38.4,0,109.6,13.57,0.83,341.7
"2009-03-12 01:06:30",703192,2.021,9.58,7.501,1.136,2.133,100.2866,0.031,1.409,38.64,0,109.6,13.57,0.78,331.6
"2009-03-12 01:07:00",703193,2.048,11.26,7.653,1.285,1.517,100.2789,0.012,1.278,38.69,0,109.6,13.57,0.76,333.3
"2009-03-12 01:07:30",703194,2.884,9.21,5.872,1.114,3.478,100.2617,-0.032,1.389,38.95,0,109.6,13.57,0.72,331.2
"2009-03-12 01:08:00",703195,2.174,3.319,7.695,1.259,1.476,100.2498,-0.063,1.227,38.97,0,109.6,13.57,0.69,325.3
"2009-03-12 01:08:30",703196,2.875,359.6,6.821,1.282,2.467,100.2297,-0.114,1.274,39.19,0,109.6,13.57,0.64,321.6
"2009-03-12 01:09:00",703197,3.029,0.007,6.425,1.207,2.914,100.2204,-0.138,1.267,39.39,0,109.6,13.57,0.61,322.0
"2009-03-12 01:09:30",703198,3.222,356.7,6.521,1.188,2.644,100.1958,-0.2,1.18,39.46,0,109.6,13.57,0.55,318.7
"2009-03-12 01:10:00",703199,2.358,351.5,5.472,0.924,0.689,100.183,-0.233,1.103,39.54,0,109.6,13.57,0.52,313.5
"2009-03-12 01:10:30",703200,2.623,355,4.408,1.234,1.064,100.1624,-0.286,1.022,39.64,0,109.6,13.57,0.47,317.0
"2009-03-12 01:11:00",703201,1.821,351.3,3.183,0.522,0.236,100.1579,-0.297,1.053,39.92,0,109.6,13.58,0.45,313.3
"2009-03-12 01:11:30",703202,3.525,0.027,5.211,1.114,3.516,100.1307,-0.366,1.119,40.17,0,109.5,13.58,0.38,322.0
"2009-03-12 01:12:00",703203,3.437,0.836,4.832,0.989,4.147,100.1296,-0.369,1.111,40.36,0,109.5,13.58,0.38,322.8
"2009-03-12 01:12:30",703204,2.614,358.1,6.292,1.216,1.928,100.1163,-0.403,0.916,40.34,0,109.5,13.58,0.35,320.1
"2009-03-12 01:13:00",703205,2.218,356.9,5.558,1.161,1.498,100.0968,-0.453,0.906,40.5,0,109.5,13.58,0.30,318.9
"2009-03-12 01:13:30",703206,1.89,358.4,7.451,1.123,1.34,100.0954,-0.456,0.861,40.62,0,109.5,13.58,0.29,320.4
"2009-03-12 01:14:00",703207,1.243,0.029,5.471,0.741,-0.15,100.0846,-0.484,0.703,40.6,0,109.5,13.58,0.27,322.0
"2009-03-12 01:14:30",703208,0.874,6.472,1.837,0.038,-0.342,100.0696,-0.522,0.709,40.73,0,109.5,13.58,0.23,328.5
"2009-03-12 01:15:00",703209,2.644,18.39,6.094,1.06,3.339,100.0648,-0.534,0.876,41,0,109.5,13.58,0.22,340.4
"2009-03-12 01:15:30",703210,2.607,17.65,6.047,1.071,4.268,100.0484,-0.576,0.887,41.07,0,109.5,13.59,0.17,339.6
"2009-03-12 01:16:00",703211,1.489,9.8,8.24,1.245,2.249,100.0342,-0.612,0.642,40.91,0,109.5,13.59,0.14,331.8
"2009-03-12 01:16:30",703212,0.476,4.798,8.56,0.825,1.156,100.034,-0.613,0.724,41.02,0,109.5,13.58,0.14,326.8
"2009-03-12 01:17:00",703213,0.748,3.356,13.88,0.98,0.205,100.0223,-0.643,0.528,40.92,0,109.5,13.58,0.11,325.4
"2009-03-12 01:17:30",703214,0.275,356.7,13.88,0.163,-1.006,100.0105,-0.673,0.502,40.99,0,109.5,13.62,0.08,318.7
"2009-03-12 01:18:00",703215,0.47,353.1,10.58,0.216,-0.814,100.0003,-0.699,0.496,41.05,0,109.5,13.62,0.05,315.1
"2009-03-12 01:18:30",703216,0.923,341.5,4.243,0.124,-0.487,99.99972,-0.7,0.466,41.08,0,109.5,13.62,0.05,303.5
"2009-03-12 01:19:00",703217,2.9,347.7,7.647,1.17,3.034,99.98669,-0.733,0.637,41.32,0,109.5,13.59,0.02,309.7
"2009-03-12 01:19:30",703218,3.309,345.4,5.795,1.018,4.391,99.97282,-0.769,0.717,41.44,0,109.5,13.59,-0.02,307.4
"2009-03-12 01:20:00",703219,3.703,341.8,3.43,0.749,4.801,99.97368,-0.767,0.694,41.53,0,109.5,13.59,-0.02,303.8
"2009-03-12 01:20:30",703220,2.849,335.3,6.836,1.242,1.906,99.97482,-0.764,0.527,41.56,0,109.5,13.59,-0.01,297.3
"2009-03-12 01:21:00",703221,1.581,330.8,1.276,0.056,-0.278,99.96944,-0.778,0.371,41.51,0,109.5,13.62,-0.03,292.8
"2009-03-12 01:21:30",703222,1.634,332.4,1.072,0.026,-0.262,99.96321,-0.793,0.356,41.6,0,109.5,13.62,-0.04,294.4
"2009-03-12 01:22:00",703223,2.555,334.9,5.205,1.15,2.017,99.95669,-0.81,0.416,41.75,0,109.5,13.59,-0.06,296.9
"2009-03-12 01:22:30",703224,3.509,338.7,6.15,1.09,4.356,99.95387,-0.817,0.625,41.97,0,109.5,13.6,-0.07,300.7
"2009-03-12 01:23:00",703225,3.887,340.5,4.382,0.651,4.947,99.95556,-0.813,0.619,41.93,0,109.5,13.6,-0.06,302.5
"2009-03-12 01:23:30",703226,3.206,335,6.859,1.221,2.793,99.94338,-0.844,0.457,41.77,0,109.5,13.6,-0.09,297.0
"2009-03-12 01:24:00",703227,2.49,329.2,5.595,1.052,1.029,99.93942,-0.854,0.412,41.65,0,109.5,13.6,-0.11,291.2
"2009-03-12 01:24:30",703228,2.024,326.5,0.695,0.033,-0.387,99.93065,-0.876,0.236,41.36,0,109.5,13.63,-0.13,288.5
"2009-03-12 01:25:00",703229,2.403,329.8,5.69,0.923,1.208,99.9315,-0.874,0.367,41.39,0,109.5,13.61,-0.13,291.8
"2009-03-12 01:25:30",703230,3.887,336.5,5.35,1.006,4.415,99.93008,-0.878,0.435,41.42,0,109.5,13.61,-0.13,298.5
"2009-03-12 01:26:00",703231,4.08,336,4.187,0.858,5.086,99.92075,-0.902,0.5,41.53,0,109.5,13.61,-0.15,298.0
"2009-03-12 01:26:30",703232,4.167,338.7,3.657,0.775,5.014,99.9131,-0.921,0.47,41.6,0,109.5,13.61,-0.17,300.7
"2009-03-12 01:27:00",703233,3.079,334.4,6.916,1.259,2.099,99.90489,-0.942,0.261,41.43,0,109.5,13.6,-0.19,296.4
"2009-03-12 01:27:30",703234,1.81,326.7,2.072,0.035,-0.217,99.89866,-0.958,0.157,41.37,0,109.5,13.63,-0.21,288.7
"2009-03-12 01:28:00",703235,2.925,331.5,5.878,1.223,1.487,99.89809,-0.959,0.18,41.54,0,109.5,13.61,-0.21,293.5
"2009-03-12 01:28:30",703236,2.817,329.8,7.154,1.194,2.469,99.89809,-0.959,0.249,41.75,0,109.5,13.61,-0.21,291.8
"2009-03-12 01:29:00",703237,3.091,329.6,7.091,1.203,3.205,99.89498,-0.967,0.385,41.94,0,109.5,13.61,-0.22,291.6
"2009-03-12 01:29:30",703238,3.991,332.7,2.933,0.776,4.834,99.8828,-0.998,0.415,42.02,0,109.5,13.61,-0.25,294.7
"2009-03-12 01:30:00",703239,3.254,326.7,6.111,1.213,2.663,99.87686,-1.013,0.268,41.96,0,109.5,13.61,-0.27,288.7
"2009-03-12 01:30:30",703240,1.926,319.5,1.278,0.044,-0.009,99.8661,-1.041,0.089,41.9,0,109.5,13.64,-0.29,281.5
"2009-03-12 01:31:00",703241,2.483,320.3,7.444,1.069,1.506,99.86413,-1.046,0.236,42.13,0,109.5,13.61,-0.30,282.3
"2009-03-12 01:31:30",703242,2.282,319.5,4.002,0.942,1.19,99.86413,-1.046,0.169,42.09,0,109.5,13.61,-0.30,281.5
"2009-03-12 01:32:00",703243,3.713,327.9,5.312,0.949,4.527,99.86413,-1.046,0.31,42.18,0,109.5,13.61,-0.30,289.9
"2009-03-12 01:32:30",703244,3.909,328.1,5.254,0.664,4.975,99.8644,-1.045,0.287,42.16,0,109.4,13.61,-0.30,290.1
"2009-03-12 01:33:00",703245,3.416,330,5.228,1.01,3.853,99.8644,-1.045,0.298,42.16,0,109.5,13.61,-0.30,292.0
"2009-03-12 01:33:30",703246,2.667,323.7,6.645,1.112,1.234,99.86185,-1.052,0.055,41.91,0,109.4,13.61,-0.30,285.7
"2009-03-12 01:34:00",703247,2.475,323.2,5.378,1.008,1.379,99.85902,-1.059,0.144,42.06,0,109.4,13.61,-0.31,285.2
"2009-03-12 01:34:30",703248,2.42,320.5,5.442,0.961,1.484,99.85619,-1.066,0.124,42.13,0,109.4,13.61,-0.32,282.5
"2009-03-12 01:35:00",703249,3.768,323.6,5.891,1.074,3.953,99.85392,-1.072,0.117,42.21,0,109.4,13.61,-0.32,285.6
"2009-03-12 01:35:30",703250,3.544,322.4,5.592,1.129,3.755,99.8559,-1.067,0.256,42.49,0,109.4,13.61,-0.32,284.4
"2009-03-12 01:36:00",703251,4.023,325.1,4.689,0.874,4.39,99.86014,-1.056,0.294,42.56,0,109.5,13.61,-0.31,287.1
"2009-03-12 01:36:30",703252,2.402,314,4.552,0.946,1.15,99.85618,-1.066,0.115,42.47,0,109.5,13.61,-0.32,276.0
"2009-03-12 01:37:00",703253,2.519,314.1,5.125,1.018,0.907,99.84853,-1.086,0.004,42.49,0,109.5,13.61,-0.34,276.1
"2009-03-12 01:37:30",703254,2.757,317,6.142,1.154,2.142,99.85079,-1.08,0.134,42.63,0,109.5,13.61,-0.33,279.0
"2009-03-12 01:38:00",703255,2.103,313.3,3.51,0.602,0.971,99.85305,-1.074,0.089,42.58,0,109.4,13.61,-0.33,275.3
"2009-03-12 01:38:30",703256,3.315,321.5,6.029,1.157,3.769,99.85503,-1.069,0.192,42.66,0,109.4,13.62,-0.32,283.5
"2009-03-12 01:39:00",703257,3.819,323,4.596,0.857,4.607,99.85532,-1.068,0.277,42.73,0,109.5,13.62,-0.32,285.0
"2009-03-12 01:39:30",703258,3.309,319.8,6.617,1.153,3.17,99.85559,-1.068,0.111,42.53,0,109.4,13.62,-0.32,281.8
"2009-03-12 01:40:00",703259,2.303,311.5,4.005,0.841,0.529,99.85757,-1.063,0.021,42.53,0,109.4,13.62,-0.31,273.5
"2009-03-12 01:40:30",703260,3.007,312.1,5.942,1.212,2.411,99.85927,-1.058,0.092,42.72,0,109.4,13.62,-0.31,274.1
"2009-03-12 01:41:00",703261,2.491,309.9,4.825,0.897,1.939,99.85955,-1.058,0.128,42.82,0,109.4,13.62,-0.31,271.9
"2009-03-12 01:41:30",703262,3.377,311.2,6.051,1.178,3.673,99.86097,-1.054,0.156,42.87,0,109.4,13.62,-0.31,273.2
"2009-03-12 01:42:00",703263,3.673,311.5,5.59,1.116,4.336,99.86266,-1.05,0.245,42.94,0,109.4,13.63,-0.30,273.5
"2009-03-12 01:42:30",703264,3.917,310.9,3.887,1.007,4.575,99.86351,-1.048,0.234,42.95,0,109.4,13.63,-0.30,272.9
"2009-03-12 01:43:00",703265,2.396,299.1,4.991,0.98,1.134,99.86408,-1.046,0,42.73,0,109.4,13.63,-0.30,261.1
"2009-03-12 01:43:30",703266,2.218,297.7,4.37,0.732,0.923,99.86408,-1.046,0.114,42.9,0,109.3,13.63,-0.30,259.7
"2009-03-12 01:44:00",703267,2.847,300.9,5.745,1.145,1.938,99.86408,-1.046,0.057,42.83,0,109.4,13.63,-0.30,262.9
"2009-03-12 01:44:30",703268,3.207,305.3,6.298,1.25,3.488,99.86408,-1.046,0.175,42.97,0,109.4,13.63,-0.30,267.3
"2009-03-12 01:45:00",703269,3.731,304.6,6.772,1.111,4.195,99.86408,-1.046,0.245,43.02,0,109.4,13.63,-0.30,266.6
"2009-03-12 01:45:30",703270,3.796,301.5,5.902,1.064,4.588,99.86465,-1.045,0.286,43.04,0,109.4,13.63,-0.30,263.5
"2009-03-12 01:46:00",703271,2.254,296.4,4.851,0.938,1.53,99.86436,-1.045,0.116,42.85,0,109.4,13.63,-0.30,258.4
"2009-03-12 01:46:30",703272,2.373,295.2,4.967,0.925,1.308,99.86492,-1.044,0.121,42.82,0,109.4,13.63,-0.30,257.2
"2009-03-12 01:47:00",703273,2.826,297.1,6.301,1.193,2.266,99.86748,-1.037,0.083,42.82,0,109.4,13.63,-0.29,259.1
"2009-03-12 01:47:30",703274,2.148,293.5,3.746,0.748,1.719,99.87343,-1.022,0.228,42.94,0,109.4,13.63,-0.27,255.5
"2009-03-12 01:48:00",703275,3.687,302.6,4.684,1.127,4.146,99.87485,-1.019,0.287,42.99,0,109.4,13.63,-0.27,264.6